AirNav   Air Wisconsin pilot careers
 
 1160 users online  

36NJ Colliers Mills Heliport
Cassville, New Jersey, USA

GOING TO CASSVILLE?


FAA INFORMATION EFFECTIVE 21 JUNE 2018

Location

FAA Identifier: 36NJ
Lat/Long: 40-03-48.4110N / 074-26-28.5420W
40-03.806850N / 074-26.475700W
40.0634475 / -74.4412617
(estimated)
Elevation: 130 ft. / 40 m (estimated)
Variation: 12W (1985)
From city: 4 miles SW of CASSVILLE, NJ
Time zone: UTC -4 (UTC -5 during Standard Time)
Zip code: 08533

Heliport Operations

Heliport use: Private use. Permission required prior to landing
Activation date: 11/1982
Control tower: no
ARTCC: NEW YORK CENTER
FSS: MILLVILLE FLIGHT SERVICE STATION
Attendance: APR-MAY 1000-1800
Wind indicator: yes
Segmented circle: no

Heliport Communications

WX AWOS-3PT at MJX (11 nm SE): 119.875 (732-797-2542)
WX AWOS-AV at N12 (12 nm E): 122.8 (732-363-6471)
WX AWOS-3PT at BLM (16 nm NE): 121.625 (732-938-3330)
WX ASOS at VAY (20 nm W): 119.325 (609-267-1176)

Nearby radio navigation aids

VOR radial/distance  VOR name  Freq  Var
GXUr078/7.8MC GUIRE VORTAC110.6012W
RBVr174/8.7ROBBINSVILLE VORTAC113.8010W
CYNr008/14.8COYLE VORTAC113.4010W
COLr232/19.7COLTS NECK VOR/DME115.4011W
ARDr128/24.2YARDLEY VOR/DME108.2010W
PNEr102/(26.1)NORTH PHILADELPHIA VOR112.0010W
SBJr166/34.1SOLBERG VOR/DME112.9010W
ACYr020/37.0ATLANTIC CITY VORTAC108.6010W
VCNr048/39.8CEDAR LAKE VOR/DME115.2010W

 
NDB name  Hdg/Dist  Freq  Var  ID
LAKEHURST294/5.039611WNEL -. . .-..
AMBLER108/38.927512WING .. -. --.
BRIDGE232/39.641412WOGY --- --. -.--

Heliport Services

Runway Information

Helipad H1

Dimensions: 1800 x 200 ft. / 549 x 61 m
Surface: turf, in fair condition
Latitude: 40-03.806850N
Longitude: 074-26.475700W
Elevation: 130.0 ft.
Traffic pattern: leftleft
Markings: none, in fair condition
Obstructions: trees

Heliport Ownership and Management from official FAA records

Ownership: Publicly-owned
Owner: NJ FOREST FIRE SERVICE
CN 404 501 EAST STATE ST
TRENTON, NJ 08625
Phone 609-292-2977
Manager: DAVID B. HARRISON

Heliport Operational Statistics

Aircraft based on the field: 1
Single engine airplanes: 1
    

Instrument Procedures

There are no published instrument procedures at 36NJ.

Some nearby airports with instrument procedures:

KNEL - Lakehurst Maxfield Field Airport (4 nm E)
KWRI - McGuire Field (Joint Base Mc Guire Dix Lakehurst) Airport (7 nm SW)
KMJX - Ocean County Airport (11 nm SE)
N87 - Trenton-Robbinsville Airport (12 nm NW)
N12 - Lakewood Airport (12 nm E)
KBLM - Monmouth Executive Airport (16 nm NE)
3N6 - Old Bridge Airport (17 nm N)
N73 - Red Lion Airport (17 nm SW)
N14 - Flying W Airport (19 nm SW)
KVAY - South Jersey Regional Airport (20 nm W)
 
Loc | Ops | Rwys | IFR | FBO | Links
Com | Nav | Svcs | Stats | Notes


 
Area around 36NJ (Colliers Mills Heliport)
 
Road maps at: MapQuest Bing Google
 
Aerial photo
No photo
 
Sectional chart

 
Airport distance calculator
Flying to Colliers Mills Heliport? Find the distance to fly.

From to 36NJ

Sunrise and sunset
Times for 17-Jul-2018
 Local
(UTC-4)
 Zulu
(UTC)
Morning civil twilight05:1209:12
Sunrise05:4409:44
Sunset20:2400:24
Evening civil twilight20:5600:56

Current date and time
Zulu (UTC)  17-Jul-2018 23:53:00
Local (UTC-4)  17-Jul-2018 19:53:00
 
METAR
KNEL 
6nm SE 
172331Z 10SM BKN004 BKN035 OVC043 A2984 RMK AO2 PNO
KWRI 
7nm SW 
172321Z AUTO 11006KT 10SM SCT004 BKN130 22/22 A2981 RMK AO2 SLP093 $
KMJX 
11nm SE 
AWOS-3 119.875 732-244-4450
172341Z AUTO 13004KT 10SM -RA SCT003 BKN031 OVC038 22/21 A2985 RMK AO2 LTG DSNT SE P0008
KBLM 
16nm NE 
AWOS-3 121.625 732-938-3330
172303Z AUTO 09005KT 10SM -RA BKN004 OVC029 21/21 A2987 RMK AO2 LTG DSNT SE P0000
KVAY 
20nm SW 
ASOS 119.325 609-267-1176
172330Z AUTO 11006KT 10SM BKN006 23/23 A2983 RMK AO2 P0002 T02330233
TAF
KWRI 
7nm SW 
171839Z 1718/1824 22012KT 9999 FEW020 SCT250 QNH2972INS TEMPO 1718/1719 23015G25KT BECMG 1718/1719 21012KT 8000 -SHRA BKN020 QNH2970INS TEMPO 1719/1801 24015G25KT 3200 TSRA BR FEW005 BKN015CB OVC020 BECMG 1802/1803 34006KT 6000 BR BKN010 OVC030 QNH2975INS BECMG 1807/1808 34009KT 9999 NSW FEW050 QNH2978INS TX36/1720Z TN21/1809Z
NOTAMs
Click for the latest NOTAMs
NOTAMs are issued by the DoD/FAA and will open in a separate window not controlled by AirNav.

 

 
 

Would you like to see your business listed on this page?

 If your business provides an interesting product or service to pilots, flight crews, aircraft, or users of the Colliers Mills Heliport, you should consider listing it here.  To start the listing process, click on the button below
 
Add a business
 

Other Pages about Colliers Mills Heliport

Update a link
 
Copyright © AirNav, LLC. All rights reserved. Privacy Policy  Contact